Regional Weather Roundup
Issued by NWS

Home | Current Version | Previous Version | Graphics & Text | Print | Product List | Glossary On
Versions: 1 2 3 4 5 6 7 8 9 10 11 12 13 14 15 16 17 18 19 20 21 22 23 24 25 26 27 28 29 30 31 32 33 34 35 36 37 38 39 40 41 42 43 44 45 46 47 48 49 50
000
ASUS45 KABQ 180101
RWRNM
NEW MEXICO REGIONAL WEATHER ROUNDUP
NATIONAL WEATHER SERVICE ALBUQUERQUE NM
600 PM MST FRI NOV 17 2017

NOTE: "FAIR" MEANS FEW OR NO CLOUDS BELOW 12,000 FEET AGL WITH NO
       SIGNIFICANT WEATHER OR OBSTRUCTIONS TO VISION.

      THIS PRODUCT IS RELEASED AS TWO VERSIONS.  ONE VERSION NEAR
      THE TOP OF THE HOUR CONTAINING PRELIMINARY DATA FROM ALBUQUERQUE
      AND OTHER STATIONS.  A FINAL VERSION WITH ADDITIONAL DATA IS
      ISSUED ABOUT 10 MINUTES AFTER THE HOUR.

NMZ501-503-504-510>518-180200-
NORTHWEST PLATEAU/NORTHCENTRAL MOUNTAINS

CITY           SKY/WX    TMP DP  RH WIND       PRES   REMARKS
FARMINGTON     FAIR      54  34  46 SW16G26   29.87S
LOS ALAMOS     DRIZZLE   47  38  70 SW18G28   29.97S
SANTA FE       MOCLDY    57  35  43 W12       29.96S
TAOS           CLOUDY    49  37  63 SW16G28   29.95F
ANGEL FIRE     LGT RAIN  42  36  80 SW16G32   29.95F

$$
NMZ402-403-502-505>509-180200-
WESTCENTRAL MOUNTAINS/SOUTHWEST MOUNTAINS

CITY           SKY/WX    TMP DP  RH WIND       PRES   REMARKS
GALLUP         MOCLDY    47  41  80 S12       30.03F
GRANTS         FAIR      50  40  69 SW15      30.04F
SILVER CITY    FAIR      63  20  19 W14       30.06R

$$
NMZ407-409-411-412-180200-
SOUTHERN DESERTS

CITY           SKY/WX    TMP DP  RH WIND       PRES   REMARKS
DEMING         FAIR      70  19  14 W15       29.99R
LAS CRUCES     FAIR      69  17  14 W9        29.99S
HOLLOMAN AFB   FAIR      73  17  12 SE12      29.97R
ALAMOGORDO     CLOUDY    73  18  12 SW12      29.97R
T OR C         FAIR      71  23  16 W14       29.96R

$$
NMZ519>523-180200-
CENTRAL VALLEYS/CENTRAL HIGHLANDS

CITY           SKY/WX    TMP DP  RH WIND       PRES   REMARKS
ALBUQUERQUE    MOCLDY    61  36  39 W12       29.98R
DOUBLE EAGLE   MOCLDY    57  37  47 W17G26    30.00R
MORIARTY ARPT  CLOUDY    60  33  36 W23G36    29.97F
CLINES CORNERS CLOUDY    55  33  43 W32G41    29.99S
BELEN          CLOUDY    60  37  42 W32G41    29.98S
SOCORRO        CLOUDY    66  32  28 N9        29.97R

$$
NMZ524>526-539-540-180200-
SOUTHCENTRAL MOUNTAINS

CITY           SKY/WX    TMP DP  RH WIND       PRES   REMARKS
RUIDOSO        FAIR      61  18  18 SW25G41   30.02R

$$
NMZ527>531-180200-
NORTHEAST HIGHLANDS/NORTHEAST PLAINS

CITY           SKY/WX    TMP DP  RH WIND       PRES   REMARKS
LAS VEGAS      FAIR      54  34  46 W31G40    29.91R
RATON          FAIR      49  34  56 S8        29.79F
CLAYTON        FAIR      60  37  42 W23G31    29.73F

$$
NMZ532>537-180200-
EASTCENTRAL PLAINS

CITY           SKY/WX    TMP DP  RH WIND       PRES   REMARKS
SANTA ROSA     FAIR      67  32  27 W20       29.83S
TUCUMCARI      FAIR      69  30  23 W14       29.76R
CANNON AFB     FAIR      67  27  22 SW12      29.82F
CLOVIS AIRPORT FAIR      60  28  29 W6        29.82S

$$
NMZ028-029-538-180200-
SOUTHEAST PLAINS

CITY           SKY/WX    TMP DP  RH WIND       PRES   REMARKS
ROSWELL        FAIR      73  31  21 W12       29.83R
ARTESIA        FAIR      73  28  19 SW20      29.86R
CARLSBAD       FAIR      68  30  24 SW6       29.86R
HOBBS          CLEAR     70  28  21 SW12G17   29.86R


$$




USA.gov is the U.S. government's official web portal to all federal, state and local government web resources and services.